Delta, CO

1:48 AM MDT on June 25, 2017 (GMT -0600)
Delta

Weather History for KAJZ - April, 2013

Change the Weather History Date:

Sunday, April 7, 2013

  Actual Average (KMTJ) Record (KMTJ)
Temperature  
Mean Temperature 55 °F -  
Max Temperature 70 °F 55 °F 75 °F (2005)
Min Temperature 40 °F 31 °F 23 °F (2012)
Degree Days  
Heating Degree Days 10    
Growing Degree Days 5 (Base 50)    
Moisture  
Dew Point 26 °F    
Average Humidity 36    
Maximum Humidity 72    
Minimum Humidity 11    
Precipitation  
Precipitation 0.00 in - - ()
Sea Level Pressure  
Sea Level Pressure 29.86 in    
Wind  
Wind Speed 6 mph (NE)    
Max Wind Speed 21 mph    
Max Gust Speed 28 mph    
Visibility 10 miles    
Events      
Averages and records for this station are not official NWS values.
T = Trace of Precipitation, MM = Missing Value Source: NWS Daily Summary

Daily Weather History Graph

Daily Weather History Graph

Search for Another Location

Airport or City:

Trip Planner

Search our weather history database for the weather conditions in past years. The results will help you decide how hot, cold, wet, or windy it might be!

Date:

Astronomy

Apr. 07, 2013 Rise Set
Actual Time 6:47 AM MDT 7:41 PM MDT
Civil Twilight 6:20 AM MDT 8:08 PM MDT
Nautical Twilight 5:48 AM MDT 8:41 PM MDT
Astronomical Twilight 5:14 AM MDT 9:14 PM MDT
Moon 5:05 AM MDT (4/7) 5:18 PM MDT (4/7)
Length of Visible Light 13h 48m
Length of Day
12h 54m
Waning Crescent, 8% of the Moon is Illuminated
Apr 7
Waning Crescent
Apr 10
New
Apr 18
First Quarter
Apr 25
Full
May 2
Last Quarter

Hourly Weather History & Observations

Time (MDT) Temp. Windchill Dew Point Humidity Pressure Visibility Wind Dir Wind Speed Gust Speed Precip Events Conditions
12:15 AM 54.1 °F - 32.0 °F 43% 29.96 in 10.0 mi WSW 6.9 mph - N/A   Clear
12:35 AM 53.1 °F - 32.0 °F 45% 29.97 in 10.0 mi WSW 6.9 mph - N/A   Clear
12:55 AM 52.0 °F - 32.0 °F 47% 29.98 in 10.0 mi WNW 8.1 mph - N/A   Scattered Clouds
1:15 AM 51.1 °F - 32.0 °F 48% 29.98 in 10.0 mi East 4.6 mph - N/A   Mostly Cloudy
1:35 AM 51.1 °F - 32.2 °F 48% 29.98 in 10.0 mi Calm Calm - N/A   Overcast
1:55 AM 52.0 °F - 35.2 °F 53% 29.98 in 10.0 mi East 6.9 mph - N/A   Overcast
2:15 AM 51.3 °F - 35.6 °F 55% 29.98 in 10.0 mi NNE 5.8 mph - N/A   Overcast
2:35 AM 50.7 °F - 36.7 °F 59% 29.98 in 10.0 mi NNE 4.6 mph - N/A   Overcast
2:55 AM 51.1 °F - 35.6 °F 55% 29.97 in 10.0 mi NNE 5.8 mph - N/A   Overcast
3:15 AM 51.8 °F - 35.6 °F 54% 29.96 in 10.0 mi East 3.5 mph - N/A   Overcast
3:35 AM 49.3 °F - 34.9 °F 58% 29.96 in 10.0 mi NE 5.8 mph - N/A   Overcast
3:55 AM 48.2 °F - 34.7 °F 60% 29.95 in 10.0 mi East 5.8 mph - N/A   Overcast
4:15 AM 45.9 °F 42.9 °F 34.2 °F 64% 29.94 in 10.0 mi NE 5.8 mph - N/A   Scattered Clouds
4:35 AM 45.9 °F 42.9 °F 33.3 °F 61% 29.94 in 10.0 mi NNE 5.8 mph - N/A   Clear
4:55 AM 45.5 °F 43.2 °F 32.7 °F 61% 29.94 in 10.0 mi ENE 4.6 mph - N/A   Clear
5:15 AM 44.1 °F 39.0 °F 33.3 °F 66% 29.94 in 10.0 mi East 9.2 mph - N/A   Clear
5:35 AM 43.2 °F 38.4 °F 32.4 °F 66% 29.95 in 10.0 mi ENE 8.1 mph - N/A   Clear
5:55 AM 42.8 °F 38.6 °F 32.0 °F 66% 29.95 in 10.0 mi ENE 6.9 mph - N/A   Clear
6:15 AM 42.4 °F 38.1 °F 33.1 °F 69% 29.95 in 10.0 mi East 6.9 mph - N/A   Clear
6:35 AM 41.5 °F 37.1 °F 33.1 °F 72% 29.95 in 10.0 mi NE 6.9 mph - N/A   Scattered Clouds
6:55 AM 42.3 °F 38.6 °F 32.5 °F 68% 29.96 in 10.0 mi ENE 5.8 mph - N/A   Clear
7:15 AM 40.6 °F 36.0 °F 31.8 °F 71% 29.96 in 10.0 mi NE 6.9 mph - N/A   Clear
7:35 AM 43.9 °F 39.9 °F 32.9 °F 65% 29.96 in 10.0 mi ENE 6.9 mph - N/A   Clear
7:55 AM 45.3 °F 40.6 °F 34.0 °F 65% 29.96 in 10.0 mi East 9.2 mph - N/A   Clear
8:15 AM 46.8 °F - 33.8 °F 61% 29.96 in 10.0 mi East 9.2 mph - N/A   Clear
8:35 AM 48.4 °F - 34.2 °F 58% 29.96 in 10.0 mi ENE 9.2 mph - N/A   Clear
8:55 AM 50.0 °F - 35.4 °F 57% 29.96 in 10.0 mi East 5.8 mph - N/A   Clear
9:15 AM 51.8 °F - 36.0 °F 55% 29.95 in 10.0 mi NE 6.9 mph - N/A   Clear
9:55 AM 54.1 °F - 35.2 °F 49% 29.94 in 10.0 mi East 4.6 mph - N/A   Clear
10:15 AM 55.9 °F - 34.0 °F 44% 29.93 in 10.0 mi ENE 4.6 mph - N/A   Mostly Cloudy
10:35 AM 55.6 °F - 33.1 °F 43% 29.93 in 10.0 mi ENE 9.2 mph - N/A   Overcast
10:55 AM 58.8 °F - 32.5 °F 37% 29.92 in 10.0 mi East 6.9 mph - N/A   Mostly Cloudy
11:15 AM 60.3 °F - 31.8 °F 34% 29.92 in 10.0 mi Calm Calm - N/A   Mostly Cloudy
11:35 AM 59.9 °F - 30.2 °F 33% 29.91 in 10.0 mi NNE 4.6 mph - N/A   Overcast
11:55 AM 61.2 °F - 28.6 °F 29% 29.91 in 10.0 mi Calm Calm - N/A   Overcast
12:15 PM 60.1 °F - 30.0 °F 32% 29.90 in 10.0 mi Calm Calm - N/A   Overcast
12:35 PM 61.2 °F - 28.6 °F 29% 29.88 in 10.0 mi South 3.5 mph - N/A   Scattered Clouds
12:55 PM 63.7 °F - 28.4 °F 26% 29.87 in 10.0 mi South 3.5 mph - N/A   Clear
1:15 PM 63.0 °F - 27.5 °F 26% 29.85 in 10.0 mi SW 3.5 mph - N/A   Scattered Clouds
1:35 PM 63.1 °F - 27.0 °F 25% 29.84 in 10.0 mi Calm Calm - N/A   Mostly Cloudy
1:55 PM 64.6 °F - 26.2 °F 23% 29.83 in 10.0 mi Calm Calm - N/A   Overcast
2:15 PM 66.4 °F - 25.5 °F 21% 29.82 in 10.0 mi SSW 9.2 mph - N/A   Mostly Cloudy
2:35 PM 65.7 °F - 23.5 °F 20% 29.81 in 10.0 mi WSW 4.6 mph 17.3 mph N/A   Mostly Cloudy
2:55 PM 67.5 °F - 24.1 °F 19% 29.80 in 10.0 mi Calm Calm - N/A   Scattered Clouds
3:15 PM 67.6 °F - 22.8 °F 18% 29.78 in 10.0 mi West 12.7 mph 17.3 mph N/A   Mostly Cloudy
3:35 PM 68.0 °F - 21.9 °F 17% 29.77 in 10.0 mi WNW 9.2 mph - N/A   Mostly Cloudy
3:55 PM 68.7 °F - 21.6 °F 17% 29.77 in 10.0 mi WNW 8.1 mph 16.1 mph N/A   Overcast
4:15 PM 70.5 °F - 19.0 °F 14% 29.76 in 10.0 mi West 11.5 mph 19.6 mph N/A   Scattered Clouds
4:35 PM 70.5 °F - 17.8 °F 13% 29.75 in 10.0 mi WSW 13.8 mph 24.2 mph N/A   Clear
4:55 PM 68.4 °F - 12.9 °F 12% 29.75 in 10.0 mi West 16.1 mph 23.0 mph N/A   Clear
5:15 PM 69.3 °F - 13.8 °F 12% 29.75 in 10.0 mi WNW 17.3 mph 26.5 mph N/A   Scattered Clouds
5:35 PM 70.3 °F - 13.6 °F 11% 29.75 in 10.0 mi West 16.1 mph 27.6 mph N/A   Clear
5:55 PM 69.1 °F - 14.7 °F 12% 29.74 in 10.0 mi SW 16.1 mph 25.3 mph N/A   Clear
6:15 PM 69.1 °F - 14.5 °F 12% 29.74 in 10.0 mi WSW 9.2 mph 20.7 mph N/A   Clear
6:35 PM 68.4 °F - 14.2 °F 12% 29.73 in 10.0 mi SW 20.7 mph 26.5 mph N/A   Clear
6:55 PM 68.4 °F - 14.2 °F 12% 29.73 in 10.0 mi SW 13.8 mph 17.3 mph N/A   Scattered Clouds
7:15 PM 67.1 °F - 13.3 °F 12% 29.72 in 10.0 mi WSW 15.0 mph 21.9 mph N/A   Scattered Clouds
7:35 PM 65.8 °F - 13.1 °F 13% 29.72 in 10.0 mi West 9.2 mph - N/A   Scattered Clouds
7:55 PM 65.1 °F - 13.6 °F 14% 29.72 in 10.0 mi SW 6.9 mph - N/A   Scattered Clouds
8:15 PM 63.5 °F - 13.6 °F 14% 29.72 in 10.0 mi SW 4.6 mph - N/A   Scattered Clouds
8:35 PM 63.5 °F - 13.8 °F 14% 29.72 in 10.0 mi West 4.6 mph - N/A   Mostly Cloudy
8:55 PM 63.7 °F - 14.5 °F 15% 29.73 in 10.0 mi West 9.2 mph - N/A   Mostly Cloudy
9:15 PM 64.0 °F - 16.0 °F 16% 29.72 in 10.0 mi WNW 8.1 mph - N/A   Scattered Clouds
9:35 PM 61.9 °F - 15.4 °F 16% 29.73 in 10.0 mi Calm Calm - N/A   Scattered Clouds
9:55 PM 59.9 °F - 20.3 °F 22% 29.73 in 10.0 mi Calm Calm - N/A   Scattered Clouds
10:15 PM 57.0 °F - 17.6 °F 21% 29.72 in 10.0 mi NE 4.6 mph - N/A   Scattered Clouds
10:35 PM 56.3 °F - 17.2 °F 22% 29.72 in 10.0 mi Calm Calm - N/A   Scattered Clouds
10:55 PM 55.8 °F - 17.8 °F 23% 29.72 in 10.0 mi Calm Calm - N/A   Scattered Clouds
11:15 PM 53.1 °F - 19.8 °F 27% 29.71 in 10.0 mi Calm Calm - N/A   Scattered Clouds
11:35 PM 55.9 °F - 21.0 °F 26% 29.71 in 10.0 mi Calm Calm - N/A   Scattered Clouds
11:55 PM 52.7 °F - 19.9 °F 28% 29.70 in 10.0 mi East 3.5 mph - N/A   Mostly Cloudy